Temp
71 69 69 69 67 66 66 66 67 65 65 68 68 67 66 64 63 62 63 63 62 63 62 62 63 63 62 61 61 60 59 57 54 58 60 62 63 63 63 63 66 64 64
66 67 66 66 65 66 65 66 68 67 68 68 68 67 67 66 65 64 62 62 60 60 61 60 61 64 62 63 61 59 57 57 55 55 57 58 60 60 59 59 62 64 63
63 66 65 65 65 66 65 65 67 67 65 65 65 65 65 65 64 63 63 62 61 61 60 59 59 59 60 61 60 59 59 58 57 55 54 56 57 57 56 56 56 55 59
68 66 66 67 67 66 66 66 65 65 64 63 63 63 64 63 63 63 62 60 59 60 60 60 59 58 58 58 58 58 58 57 57 56 55 54 55 54 54 53 52 53 53
69 68 68 68 69 68 64 64 64 63 63 63 62 63 62 63 64 60 59 59 57 57 58 59 59 61 64 59 57 56 55 55 56 55 55 55 54 52 53 54 54 52 52
68 68 69 69 68 65 64 62 62 62 62 62 61 61 59 65 58 56 56 55 57 56 55 57 57 60 60 60 58 57 57 54 54 55 55 54 54 54 54 54 53 50 49
68 69 69 67 66 64 63 63 60 59 59 58 59 58 58 58 56 54 56 54 54 54 55 55 57 62 58 57 57 57 55 54 55 54 51 50 51 54 55 53 53 52 52
67 67 67 66 65 64 62 60 58 57 57 55 56 57 56 59 54 52 52 53 54 55 57 55 54 54 54 51 53 55 54 54 53 54 52 53 53 54 55 55 54 53 53
66 65 66 65 63 62 60 58 57 57 56 55 57 56 56 54 52 54 53 55 55 55 59 61 57 52 48 46 52 51 51 52 54 54 53 52 51 50 54 55 52 50 48
65 66 65 64 63 61 60 57 58 57 57 58 57 56 56 54 51 52 53 54 52 53 53 55 52 51 47 49 50 49 48 50 51 51 50 50 50 52 50 54 54 50 50
67 66 64 63 61 60 59 58 57 55 54 56 54 58 55 55 56 51 50 52 52 52 53 53 54 44 44 42 42 46 48 49 49 48 49 50 49 53 53 53 54 53 50
64 64 63 61 63 64 59 56 56 56 56 54 52 55 56 55 53 52 51 48 49 49 50 51 50 47 46 47 47 46 44 45 50 50 50 49 50 53 52 52 54 54 54
62 61 61 62 62 60 58 56 52 53 54 52 52 51 55 54 55 50 51 48 48 48 50 48 46 45 45 46 46 45 44 46 49 48 48 48 49 52 51 52 53 54 54
60 59 59 60 57 62 55 55 50 48 48 51 52 52 50 52 51 48 49 49 48 47 47 46 45 45 45 47 47 46 48 50 49 49 49 51 52 51 51 52 52 52 51
59 58 56 57 57 55 53 52 52 51 50 48 48 50 49 48 47 42 41 45 45 45 42 43 46 49 49 48 49 50 50 49 49 50 50 50 50 51 51 52 52 51 50
56 56 55 58 55 54 52 54 50 48 45 43 42 44 48 44 41 39 40 39 39 39 42 47 47 46 47 47 47 47 49 49 49 49 49 49 49 49 49 50 51 50 48
53 54 57 53 53 51 50 49 47 49 47 43 42 42 42 42 40 40 40 39 42 41 45 44 46 47 47 47 47 46 47 48 49 48 48 48 48 50 48 48 49 49 48
53 52 52 52 53 51 50 50 48 46 45 46 45 45 43 43 42 42 42 46 49 45 45 45 46 46 45 45 47 47 47 48 48 48 48 49 49 49 49 49 50 49 48
55 55 52 52 52 51 50 48 47 45 45 47 49 47 47 45 44 43 45 49 48 48 46 46 47 46 46 46 48 48 48 48 48 48 48 49 50 50 49 49 49 45 46
57 53 52 53 56 50 48 46 45 44 45 46 44 45 44 46 49 50 48 49 50 51 50 52 51 51 51 51 51 50 51 51 50 49 48 47 49 49 50 49 49 48 48
54 56 53 56 50 48 47 45 45 43 42 44 45 46 35 41 46 50 50 51 49 48 49 50 51 52 50 49 49 49 48 47 47 46 46 46 47 47 48 46 46 46 45
56 56 53 54 50 49 47 46 44 43 43 43 44 45 39 44 46 48 48 49 50 50 48 49 49 48 47 46 46 47 47 46 47 46 46 45 45 45 45 44 44 47 47
56 54 54 53 52 49 49 49 45 45 44 45 46 48 48 47 48 48 49 50 50 48 47 48 46 45 47 47 45 43 41 40 41 43 42 42 41 41 41 41 41 41 45
55 55 55 53 54 53 51 48 47 46 47 47 49 48 48 49 53 51 50 49 49 48 47 47 46 45 46 45 44 40 36 38 44 41 44 43 43 41 42 41 42 43 42
56 53 55 53 54 50 49 52 51 51 50 53 50 52 54 52 51 52 52 48 48 48 47 45 44 46 46 44 42 41 36 35 40 36 43 46 47 47 45 42 43 43 43
55 55 53 51 52 50 50 51 53 54 53 53 53 51 50 50 50 49 49 49 51 48 46 45 46 46 46 44 40 36 34 35 39 36 43 48 47 48 47 46 45 43 48
MSLP
1013.60 1014.08 1014.49 1014.16 1014.35 1015.37 1015.93 1015.96 1015.92 1015.85 1016.23 1016.28 1015.79 1015.44 1015.19 1015.06 1015.12 1015.34 1015.31 1015.29 1015.32 1015.16 1015.00 1014.87 1014.39 1014.35 1014.39 1014.21 1014.16 1014.00 1014.41 1014.86 1014.88 1014.32 1014.14 1013.98 1014.03 1014.12 1014.37 1014.33 1014.43 1014.97 1015.73
1013.68 1014.79 1014.43 1014.61 1014.77 1015.17 1015.65 1015.72 1015.84 1015.78 1015.83 1015.74 1015.28 1015.02 1014.87 1014.79 1014.84 1014.88 1014.93 1014.89 1015.11 1014.94 1014.60 1014.36 1014.05 1013.66 1013.66 1013.68 1013.41 1012.81 1013.07 1013.87 1014.55 1014.85 1014.35 1014.21 1014.25 1014.40 1014.87 1015.04 1015.06 1015.04 1015.17
1015.32 1015.29 1014.56 1015.21 1014.50 1014.91 1015.31 1015.34 1015.73 1015.84 1016.01 1015.64 1015.32 1015.06 1014.99 1014.82 1014.69 1014.60 1014.68 1014.65 1014.63 1014.55 1014.30 1014.17 1013.97 1013.79 1013.66 1013.37 1012.51 1012.89 1013.01 1013.68 1013.95 1014.69 1014.52 1014.29 1014.44 1014.63 1015.39 1015.29 1015.44 1015.65 1015.55
1014.91 1014.58 1014.27 1013.91 1014.32 1014.87 1015.23 1015.79 1016.10 1016.01 1015.82 1015.71 1015.48 1015.26 1015.10 1015.02 1014.91 1014.82 1014.81 1014.59 1014.46 1014.40 1014.20 1013.90 1013.58 1013.45 1013.36 1013.21 1013.22 1013.10 1013.35 1013.73 1013.99 1014.21 1014.12 1014.25 1014.36 1014.72 1014.86 1015.29 1015.82 1015.94 1016.05
1014.14 1014.06 1014.11 1014.24 1014.59 1015.21 1015.77 1015.78 1015.87 1015.82 1015.77 1015.58 1015.40 1015.08 1015.03 1014.93 1014.95 1014.92 1014.77 1014.56 1014.43 1014.35 1014.03 1013.65 1013.34 1013.04 1012.79 1012.60 1012.75 1012.82 1013.07 1013.27 1013.34 1013.44 1013.51 1013.54 1013.67 1014.08 1014.28 1014.61 1014.91 1015.35 1015.98
1014.37 1014.52 1014.68 1014.98 1015.20 1015.27 1015.56 1015.79 1015.82 1015.89 1015.76 1015.72 1015.60 1015.30 1015.28 1014.97 1014.78 1014.69 1014.58 1014.48 1014.25 1014.19 1014.06 1013.46 1013.00 1012.66 1012.28 1012.02 1011.88 1011.91 1012.14 1012.45 1012.64 1012.76 1012.73 1013.01 1012.78 1012.84 1013.09 1013.57 1014.04 1014.70 1015.48
1014.48 1014.66 1014.60 1014.76 1015.05 1015.35 1015.47 1015.61 1015.80 1015.84 1015.71 1015.66 1015.55 1015.38 1015.22 1014.91 1014.58 1014.41 1014.19 1014.14 1014.04 1013.80 1013.52 1013.20 1012.78 1012.28 1011.99 1011.78 1011.51 1011.32 1011.36 1011.48 1011.66 1011.95 1012.40 1012.57 1012.69 1012.52 1012.93 1012.80 1012.67 1013.32 1013.71
1014.66 1014.74 1014.82 1014.98 1015.09 1015.17 1015.41 1015.60 1015.62 1015.55 1015.48 1015.49 1015.48 1015.31 1015.15 1014.77 1014.70 1014.38 1014.05 1013.87 1013.68 1013.32 1012.76 1012.72 1012.66 1012.31 1012.04 1011.86 1011.58 1011.35 1011.05 1011.01 1010.85 1011.30 1011.52 1011.45 1011.45 1011.51 1012.05 1011.87 1012.25 1012.62 1013.09
1014.63 1014.68 1014.62 1014.66 1014.90 1015.15 1015.38 1015.53 1015.57 1015.36 1015.39 1015.43 1015.29 1015.25 1015.11 1015.05 1014.58 1014.13 1013.73 1013.53 1013.30 1013.02 1012.65 1012.24 1011.97 1012.14 1011.78 1011.47 1011.53 1011.56 1011.38 1010.85 1010.21 1010.41 1010.41 1010.48 1010.76 1011.00 1011.15 1011.68 1011.68 1012.11 1012.65
1014.86 1014.81 1014.74 1014.79 1015.02 1015.20 1015.37 1015.37 1015.12 1015.07 1015.13 1015.09 1014.96 1014.84 1014.68 1014.96 1014.56 1014.59 1013.77 1013.59 1013.33 1012.80 1012.35 1012.12 1011.89 1011.92 1011.83 1011.62 1011.51 1011.48 1011.37 1010.89 1010.58 1010.26 1010.30 1010.31 1010.23 1010.45 1010.82 1011.01 1010.96 1011.35 1011.47
1014.86 1014.80 1014.78 1014.83 1014.84 1014.85 1015.12 1014.96 1014.94 1015.31 1015.85 1015.81 1015.33 1014.71 1014.54 1014.41 1013.97 1013.84 1013.53 1013.22 1013.00 1012.78 1012.50 1012.26 1011.82 1011.72 1011.57 1011.33 1011.19 1011.15 1010.76 1010.30 1010.25 1010.23 1009.97 1009.68 1009.63 1009.81 1009.96 1010.16 1010.16 1010.38 1010.61
1014.88 1014.90 1014.85 1014.76 1014.61 1014.54 1014.93 1015.28 1015.36 1015.60 1015.87 1016.04 1015.73 1015.59 1014.66 1014.24 1013.73 1013.64 1013.59 1013.25 1012.96 1013.05 1012.78 1012.24 1011.80 1011.47 1011.03 1010.54 1010.17 1009.75 1009.51 1009.87 1009.62 1009.63 1009.59 1009.34 1009.07 1009.00 1009.36 1009.46 1009.42 1009.61 1009.64
1014.78 1014.86 1014.88 1014.64 1014.49 1014.70 1014.97 1015.45 1016.00 1015.98 1016.05 1015.62 1016.52 1015.57 1014.84 1014.25 1013.76 1013.68 1013.75 1013.50 1013.21 1012.97 1012.43 1012.00 1011.63 1011.02 1010.34 1009.74 1009.10 1008.77 1009.07 1009.27 1009.09 1009.10 1009.00 1008.77 1008.47 1008.17 1008.54 1009.00 1009.01 1009.02 1009.46
1014.69 1014.83 1014.86 1015.02 1015.07 1014.71 1015.61 1015.76 1015.90 1015.75 1015.63 1015.38 1015.62 1015.50 1014.85 1014.47 1014.25 1013.99 1014.11 1013.66 1013.20 1012.81 1012.50 1011.99 1011.26 1010.69 1009.79 1009.13 1008.51 1008.31 1008.41 1008.51 1008.59 1008.51 1008.30 1008.05 1007.73 1007.80 1008.03 1008.32 1008.63 1008.87 1009.20
1014.96 1015.20 1015.41 1015.43 1015.46 1015.55 1015.65 1015.58 1015.53 1015.26 1015.01 1015.01 1015.23 1015.10 1014.79 1014.71 1014.64 1014.64 1014.52 1013.89 1013.56 1013.18 1012.84 1011.93 1011.22 1010.53 1009.83 1009.26 1008.60 1008.10 1008.14 1008.35 1008.25 1008.01 1007.80 1007.57 1007.50 1007.49 1007.52 1007.80 1008.03 1008.40 1009.11
1015.52 1015.55 1015.63 1015.78 1015.57 1015.63 1015.58 1015.32 1014.94 1014.91 1014.75 1014.79 1014.93 1014.90 1014.86 1014.78 1014.60 1014.46 1014.09 1013.64 1013.51 1013.14 1012.78 1012.39 1011.86 1011.07 1010.30 1009.80 1008.98 1008.62 1008.51 1008.38 1008.14 1007.94 1007.64 1007.36 1007.29 1007.18 1007.27 1007.40 1007.63 1008.46 1009.54
1015.82 1015.95 1015.90 1015.78 1015.77 1015.65 1015.51 1015.52 1015.70 1015.29 1015.09 1015.15 1015.12 1015.06 1015.01 1014.67 1014.39 1014.16 1013.90 1013.62 1013.24 1013.03 1012.97 1012.45 1012.00 1011.27 1010.93 1010.33 1009.97 1009.55 1009.18 1008.84 1008.51 1008.23 1008.06 1007.86 1007.69 1007.72 1007.92 1008.34 1008.74 1009.24 1010.00
1015.81 1015.80 1015.81 1015.81 1015.76 1015.59 1015.54 1015.79 1015.87 1015.95 1015.94 1015.82 1015.52 1015.26 1015.03 1014.64 1014.42 1014.17 1013.77 1013.37 1013.17 1013.02 1012.65 1012.18 1011.72 1011.29 1010.88 1010.63 1010.01 1009.76 1009.64 1009.28 1009.04 1008.74 1008.46 1008.27 1008.15 1008.19 1008.21 1008.56 1008.99 1009.63 1010.38
1015.70 1015.67 1015.72 1015.80 1015.69 1015.98 1016.07 1016.23 1016.32 1016.21 1016.16 1015.99 1015.70 1015.30 1015.13 1014.79 1014.39 1013.97 1013.65 1013.71 1013.50 1013.09 1012.51 1012.00 1011.65 1011.24 1010.85 1010.68 1010.33 1009.82 1009.76 1009.43 1009.22 1009.17 1008.85 1008.77 1008.73 1008.87 1009.07 1009.31 1009.71 1010.18 1010.44
1015.61 1015.51 1015.64 1015.95 1016.06 1016.24 1016.40 1016.50 1016.45 1016.48 1016.40 1016.39 1016.29 1016.06 1015.66 1015.10 1014.69 1014.19 1013.78 1013.61 1013.47 1013.27 1012.99 1012.58 1012.09 1011.58 1011.25 1010.95 1010.42 1010.22 1010.04 1009.78 1009.91 1009.77 1009.37 1009.11 1008.96 1009.09 1009.23 1009.63 1009.97 1010.51 1010.81
1015.69 1015.46 1015.70 1016.05 1016.23 1016.57 1016.61 1016.63 1016.75 1016.83 1016.79 1016.62 1016.39 1015.97 1015.68 1015.79 1015.04 1014.53 1014.17 1013.94 1013.83 1013.57 1013.41 1013.20 1012.94 1012.61 1012.43 1012.05 1011.56 1011.24 1011.13 1011.03 1010.77 1010.60 1010.42 1010.24 1009.94 1010.01 1010.00 1010.12 1010.54 1011.04 1011.45
1015.49 1015.64 1015.86 1016.03 1016.36 1016.62 1016.69 1016.81 1016.95 1017.02 1016.88 1016.71 1016.46 1015.96 1015.36 1015.23 1015.00 1014.63 1014.37 1014.15 1014.00 1013.86 1013.83 1013.78 1013.80 1013.66 1013.47 1013.18 1012.86 1012.45 1012.24 1012.05 1011.72 1011.40 1011.22 1011.06 1011.00 1010.95 1010.94 1011.11 1011.22 1011.57 1012.05
1015.67 1015.83 1015.84 1016.10 1016.31 1016.54 1016.69 1016.79 1016.81 1016.83 1016.72 1016.56 1016.27 1015.93 1015.43 1015.22 1015.09 1014.77 1014.58 1014.36 1014.26 1014.34 1014.33 1014.35 1014.40 1014.36 1014.13 1013.97 1013.84 1013.71 1013.51 1013.23 1012.79 1012.24 1012.02 1011.89 1011.83 1011.87 1011.87 1011.99 1012.12 1012.32 1012.43
1015.82 1015.87 1015.94 1016.18 1016.29 1016.28 1016.38 1016.51 1016.51 1016.23 1016.07 1015.99 1015.90 1015.69 1015.53 1015.22 1015.09 1014.95 1014.80 1014.77 1014.64 1014.76 1014.81 1014.97 1014.98 1015.03 1014.94 1014.82 1014.65 1014.50 1014.22 1013.64 1012.94 1012.82 1012.55 1012.40 1012.32 1012.27 1012.35 1012.56 1012.64 1012.80 1012.97
1015.89 1016.03 1016.12 1016.20 1016.32 1016.25 1016.32 1016.52 1016.55 1016.07 1015.93 1015.92 1015.58 1015.46 1015.21 1015.37 1015.27 1015.20 1015.04 1015.01 1014.88 1015.03 1015.30 1015.36 1015.37 1015.39 1015.50 1015.47 1015.27 1014.96 1014.61 1014.29 1013.86 1013.21 1012.72 1012.49 1012.44 1012.36 1012.56 1012.88 1013.01 1013.26 1013.35
1016.25 1016.48 1016.36 1016.29 1016.20 1016.07 1016.27 1016.05 1015.98 1016.24 1016.12 1015.85 1015.53 1015.66 1015.66 1015.67 1015.75 1015.66 1015.46 1015.34 1015.28 1015.39 1015.67 1015.81 1015.77 1015.73 1015.83 1015.87 1015.79 1015.41 1014.95 1014.53 1014.09 1013.63 1013.11 1012.73 1012.80 1012.97 1012.70 1012.95 1013.15 1013.46 1013.73
Wind_Speed
7 7 6 5 7 5 3 0 3 4 5 7 6 5 4 4 5 5 6 6 6 8 8 9 9 8 6 6 7 7 5 4 5 3 2 2 1 4 2 3 9 9 10
2 3 4 6 6 4 1 3 5 6 5 6 4 4 4 3 3 4 5 5 6 6 7 6 7 6 10 11 8 9 1 2 1 5 3 2 2 2 2 2 4 6 9
6 3 3 4 5 4 3 5 4 2 5 6 6 6 5 5 4 4 3 4 5 5 5 4 5 4 5 4 5 3 5 4 4 4 4 1 2 2 1 3 2 3 2
11 7 7 6 5 1 1 4 5 4 6 5 6 6 6 6 6 6 5 5 6 5 6 5 6 6 6 5 5 5 5 6 6 6 6 4 3 2 3 4 2 1 3
6 3 1 4 7 6 4 6 5 6 5 6 6 6 6 3 2 4 5 5 5 6 7 6 6 8 11 7 4 5 5 5 5 6 7 7 7 5 10 5 6 4 3
4 4 6 5 5 5 6 6 6 5 6 5 6 6 6 4 9 8 4 4 5 6 7 7 7 9 9 12 11 11 7 6 6 3 4 6 8 7 7 9 10 8 8
7 5 6 7 6 6 7 7 6 5 4 3 6 6 5 6 8 8 7 4 5 6 7 7 7 6 8 7 8 10 7 11 10 4 6 6 4 4 5 9 13 10 8
7 6 6 6 6 6 6 6 4 2 1 3 5 6 5 6 11 12 10 5 6 7 5 7 6 6 6 6 7 7 6 6 7 6 8 8 6 5 8 8 9 7 3
6 6 6 6 6 6 4 1 2 1 2 3 4 6 7 4 6 9 7 4 5 7 5 5 4 0 3 8 6 6 7 6 6 13 14 13 11 11 7 4 5 7 5
6 5 5 5 4 2 4 4 4 3 4 3 4 5 5 1 7 22 11 5 6 5 6 7 2 3 7 6 3 3 5 7 6 5 5 10 11 9 12 9 5 8 6
4 5 5 4 2 3 4 3 3 3 7 9 6 6 6 5 7 12 14 5 5 4 4 5 4 5 8 7 5 5 7 4 7 5 5 5 5 8 8 8 8 9 8
4 4 4 3 3 3 5 4 4 6 6 6 6 10 7 7 7 7 7 3 4 3 5 5 5 10 14 16 11 13 14 8 4 5 5 6 7 6 6 6 8 9 6
1 2 3 4 4 5 2 3 5 5 5 6 8 6 8 5 5 7 9 9 8 4 5 6 14 16 16 12 14 13 6 4 4 4 6 6 5 5 6 4 5 9 11
3 5 5 4 5 6 5 5 3 2 3 3 6 6 5 5 3 4 5 5 7 7 9 9 11 16 15 10 9 6 4 3 3 5 5 6 3 4 6 5 5 7 8
5 6 6 4 5 4 3 3 2 5 6 4 4 4 3 4 3 3 4 4 5 6 8 4 5 7 8 7 6 3 2 2 2 3 3 3 3 5 6 6 7 8 5
6 5 4 4 4 3 3 4 6 5 9 3 1 1 3 2 3 5 6 7 5 5 3 4 6 7 7 7 8 4 2 3 3 3 3 1 1 3 4 4 6 8 6
5 3 3 4 4 4 4 3 3 5 8 8 7 5 4 5 7 7 9 8 5 4 2 3 3 4 5 4 5 5 5 4 4 4 3 3 3 0 3 5 4 7 4
3 4 2 3 3 2 3 5 4 4 4 4 5 6 6 8 8 7 8 6 4 2 3 4 5 5 3 3 2 1 2 3 3 3 3 3 4 4 1 7 5 5 4
2 1 2 4 2 5 5 5 4 4 3 4 4 4 7 10 10 9 7 1 4 5 5 5 4 4 4 3 4 4 4 4 3 4 3 1 3 2 1 1 3 4 7
3 3 4 3 5 5 4 4 4 4 4 4 4 3 5 5 5 4 3 2 4 5 6 9 9 8 7 7 10 5 6 9 7 5 6 6 6 4 4 5 6 7 4
3 1 7 4 5 4 3 3 4 3 2 2 2 3 5 2 5 4 4 4 4 5 5 7 9 9 9 8 8 8 7 6 5 6 5 6 6 5 6 5 6 7 7
3 3 4 4 4 3 3 3 2 1 1 2 3 4 8 3 5 2 4 4 4 5 4 6 7 8 7 7 8 8 7 7 6 5 5 5 5 5 5 5 5 6 7
4 3 2 1 4 3 3 3 3 3 3 5 5 4 4 4 4 3 4 4 4 5 4 6 6 7 6 7 8 7 6 6 5 5 5 5 5 5 5 5 5 4 5
3 1 1 4 3 3 3 4 4 6 6 4 5 4 3 4 4 4 4 4 5 5 5 6 7 8 7 7 6 6 5 5 4 5 6 4 4 4 5 4 4 5 5
3 3 4 2 2 3 2 2 4 7 4 3 3 4 3 4 5 4 3 3 4 5 6 5 4 7 8 9 9 10 9 9 8 9 5 5 5 4 3 4 3 3 3
3 3 1 1 4 4 1 2 3 2 4 3 4 4 5 5 5 5 5 5 4 5 6 5 6 10 9 8 9 10 11 11 10 8 5 3 5 2 3 4 4 2 4
Wind_Direction
194 207 200 181 108 94 96 348 293 283 269 265 278 281 295 275 274 281 272 258 250 261 263 259 255 251 250 246 227 229 234 217 219 271 208 263 69 155 225 172 165 161 169
328 318 152 97 98 115 253 268 271 259 277 253 261 271 279 267 258 248 262 278 279 278 274 280 269 262 251 251 251 227 3 5 245 287 247 224 106 39 206 196 179 181 165
319 209 196 172 158 203 221 251 254 10 53 24 29 21 359 323 316 344 334 320 322 310 307 305 300 305 292 263 250 235 233 207 217 234 250 160 75 132 138 60 90 56 210
205 194 178 167 175 204 256 66 95 72 59 45 37 23 14 26 36 18 355 355 348 332 317 294 283 274 266 254 234 226 216 217 224 225 225 199 175 179 127 170 186 230 170
166 145 355 59 108 120 112 107 88 58 33 28 18 2 357 348 18 350 331 333 329 324 317 310 291 282 280 255 206 230 216 230 231 227 240 225 206 186 198 194 201 166 225
149 121 127 115 87 41 94 98 90 66 42 23 346 344 339 336 339 336 321 315 309 298 293 294 288 288 289 274 256 242 213 208 232 212 236 256 261 231 206 202 212 202 210
137 138 97 91 85 70 87 79 71 64 49 358 331 339 323 317 312 316 310 297 295 286 283 285 292 291 290 286 274 258 249 245 225 220 217 222 212 212 238 225 196 200 208
80 87 80 75 76 68 81 84 86 99 13 305 308 317 314 300 351 348 329 294 284 284 282 285 304 311 355 357 330 294 243 229 228 208 211 232 214 213 215 208 196 217 233
55 47 46 60 77 69 40 122 214 226 291 290 308 311 317 359 6 347 338 301 283 284 289 304 295 359 344 35 22 352 316 270 252 224 218 219 219 215 202 204 203 185 189
36 31 43 64 90 30 305 295 231 239 251 290 322 326 323 94 4 300 274 270 277 281 306 300 193 189 356 332 350 315 300 279 291 276 229 237 238 224 218 225 208 203 186
40 36 33 31 10 316 315 245 277 3 10 337 345 333 310 221 259 269 269 278 276 298 297 302 314 251 295 275 258 247 241 226 280 284 269 252 218 216 221 216 214 203 181
28 12 355 333 322 330 316 354 41 13 16 14 354 337 323 294 288 305 331 344 331 331 299 294 300 293 299 293 282 250 243 246 225 249 267 256 234 216 238 229 216 192 183
231 278 268 279 291 331 349 21 47 42 34 47 324 266 282 292 312 21 3 359 341 327 285 297 306 292 288 290 269 259 233 233 227 238 260 248 236 212 179 185 181 174 146
265 279 289 346 346 43 76 79 104 193 228 231 274 288 280 298 15 12 350 338 331 338 332 313 300 290 278 275 289 222 190 215 241 258 249 253 223 174 189 179 180 159 149
26 43 41 20 35 81 130 196 234 251 213 219 242 264 314 336 346 309 313 333 331 311 316 305 326 334 341 342 337 19 68 273 273 282 256 232 215 202 186 184 168 147 133
59 45 42 34 13 345 299 305 268 294 330 36 20 122 7 110 276 292 280 321 331 14 353 334 344 346 345 351 353 357 29 348 299 301 314 123 70 78 95 83 116 119 118
97 58 28 21 325 309 330 4 11 348 55 69 98 87 15 323 351 345 338 326 313 7 325 310 318 312 333 10 4 5 16 358 2 37 15 19 38 197 122 120 126 135 134
98 46 50 303 333 333 354 30 41 31 16 351 24 42 356 11 5 348 351 347 333 337 282 279 287 289 298 321 323 78 14 334 349 353 3 349 23 63 159 147 127 121 142
321 357 339 333 344 57 48 35 41 42 5 4 354 319 358 345 311 300 303 298 306 315 336 348 320 311 289 296 290 288 287 283 310 334 321 302 157 133 126 128 149 128 136
341 218 27 57 50 51 43 40 37 31 13 22 1 344 330 344 344 321 324 346 23 20 9 12 6 2 16 28 15 20 31 45 47 26 31 29 52 81 93 107 139 132 126
319 344 94 95 75 74 62 45 44 47 17 354 305 278 261 291 305 322 19 31 31 22 26 30 24 29 21 12 22 29 34 31 34 44 36 24 33 50 52 70 96 108 106
317 107 134 124 122 112 98 83 67 17 324 300 292 298 316 307 325 28 47 39 43 37 49 44 42 30 28 20 13 19 22 20 16 25 33 33 39 45 59 59 63 106 115
18 125 120 97 132 159 139 166 182 211 254 271 289 292 303 323 338 53 62 43 57 53 49 58 51 33 26 29 28 20 22 6 348 18 40 43 42 52 57 70 84 67 112
13 241 78 98 140 218 205 223 236 228 244 250 265 269 21 21 337 68 68 51 51 68 61 71 66 56 34 26 20 13 1 344 14 15 17 32 40 58 74 57 78 89 85
19 107 106 141 312 338 350 41 267 278 310 70 43 61 88 54 36 34 51 70 72 82 80 88 80 72 50 33 19 11 4 19 18 343 345 359 32 50 98 97 96 86 106
95 61 342 301 297 293 266 205 17 63 11 284 79 83 70 67 54 30 29 44 61 76 89 77 68 61 47 28 13 4 2 358 1 353 341 22 79 40 30 123 162 116 134